STARLINK-36814, 67904

Orbit data source: Space-Track

STARLINK-36814, 67904 is a payload satellite owned by SpaceX/Seattle (US) in LEO that was launched on Sun, 22 Feb 2026 UTC via an FALCON 9 launch vehicle from the Air Force Eastern Test Range (AFETR). Payload-class satellites include a variety of spacecraft equipped with specific instruments for various scientific and technological missions. These include communications satellites like Starlink; space stations such as the ISS; scientific satellites like the Hubble; Earth observation satellites from companies like Planet Labs, Umbra, and HawkEye 360; GPS; miniature CubeSats for education and research; and military/defense satellites.

Loading next visibility...
Identifier
67904, 2026-036A
Orbit
LEO
Country
Flag of USUS
Related business
Manufacturer
SpaceX/Seattle
Mission
Operational spacecraft
Bus & Motor
STARLINK V2MO, Unknown motor
Mass
575 kg wet, ~530 kg dry
Launch date (UTC)
2026-02-22 (3 weeks ago)
Launch vehicle
FALCON 9
Launch site
Air Force Eastern Test Range (AFETR)
Object type
Payload
Rocket body
Debris
Shape & HBR
Unknown
Radar Cross Section
RCS unknown

Expand to show TLE details & history
Last TLE update: 11 hours ago

TLE from 11 hours ago
0 STARLINK-36814
1 67904U 26036A   26071.91668981 -.01877796  00000-0 -23538-1 0  9996
2 67904  42.9995 230.4608 0001558 284.4602 179.6412 15.62082249  4164
Epoch: 2026-03-12T22:00Z
TLE epoch observation values (Epoch: 2026-03-12T22:00:01.999Z)
Latitude
41.56605°
Longitude
-161.13098°
Altitude
385.475 km
Speed
7.684 km/s
True Right ascension
22h 37m 44s
True Declination
41° 23' 10"
Sunlit
Object was in daylight at epoch
Visualization orbit readout
Latitude
Unknown
Longitude
Unknown
Altitude
Unknown
Speed
Unknown
Apparent Right ascension
Unknown
Apparent Declination
Unknown
Sunlit
N/A
Visualization observer readout
Local Sidereal Time
13:05:57
Azimuth
Unknown
Elevation
Unknown
Doppler factor
Unknown
Orbital elements
Apogee altitude
384.671 km
Perigee altitude
382.564 km
Semi-major axis
6,761.755 km
Eccentricity
0.00016
Inclination
42.9995°
RAAN
230.4608°
Arg. of periapsis
284.4602°
True anomaly
179.64131°
Mean anomaly
179.6412°
Eccentric anomaly
179.64126°
Mean motion
3.9035 °/min
Orbital period
92.22 mins
BSTAR
-0.023538
Loading maneuver chart data...
Computing Atmospheric mass density...
Loading historical data...
Loading historical data...
Loading historical data...
Loading historical data...
Loading historical data...
Loading historical data...
Loading historical data...

Documentation

Showing up to 5 results
|